ITEST KHYA-KRKD

Flight info

Callsign ITEST
Flight time N/A
Altitude 3500
Route LFV OCAGO
Aircraft C172/L-VGD/A

Departure

Time 2026-04-24 15:54
Airport Cape Cod Gateway Airport (KHYA)

Arrival

Time N/A
Airport Knox County Regional Airport (KRKD)
Time Latitude Longitude Altitude Speed Heading
2026-04-24 15:54 41.88703 -70.06184 3019 ft 102 kts
2026-04-24 15:54 41.89399 -70.06051 3019 ft 101 kts
2026-04-24 15:55 41.90092 -70.05920 3033 ft 100 kts
2026-04-24 15:55 41.90781 -70.05790 3033 ft 101 kts
2026-04-24 15:55 41.91474 -70.05659 3037 ft 100 kts
2026-04-24 15:55 41.92168 -70.05524 3061 ft 104 kts
2026-04-24 15:56 41.92887 -70.05392 3035 ft 103 kts
2026-04-24 15:56 41.93592 -70.05256 3029 ft 101 kts
2026-04-24 15:56 41.94277 -70.05127 3033 ft 101 kts
2026-04-24 15:56 41.94966 -70.04996 3033 ft 100 kts
2026-04-24 15:57 41.95649 -70.04868 3032 ft 98 kts
2026-04-24 15:57 41.96324 -70.04741 3034 ft 98 kts
2026-04-24 15:57 41.96772 -70.04655 3038 ft 99 kts
2026-04-24 15:57 41.97688 -70.04482 3041 ft 99 kts
2026-04-24 15:58 41.98373 -70.04353 3046 ft 100 kts
2026-04-24 15:58 41.99059 -70.04216 3048 ft 100 kts
2026-04-24 15:58 41.99752 -70.04090 3043 ft 100 kts
2026-04-24 15:58 42.00445 -70.03958 3041 ft 101 kts
2026-04-24 15:59 42.01138 -70.03827 3043 ft 100 kts
2026-04-24 15:59 42.01824 -70.03676 3054 ft 101 kts 13°
2026-04-24 15:59 42.02505 -70.03353 3043 ft 103 kts 16°
2026-04-24 15:59 42.03187 -70.03041 3046 ft 105 kts 17°
2026-04-24 16:00 42.03886 -70.02722 3050 ft 106 kts 16°
2026-04-24 16:00 42.04578 -70.02405 3052 ft 107 kts 16°
2026-04-24 16:00 42.05281 -70.02083 3050 ft 107 kts 16°
2026-04-24 16:00 42.05985 -70.01760 3047 ft 107 kts 17°
2026-04-24 16:01 42.06692 -70.01435 3059 ft 107 kts 17°
2026-04-24 16:01 42.07398 -70.01111 3055 ft 107 kts 18°
2026-04-24 16:01 42.08098 -70.00789 3056 ft 106 kts 18°
2026-04-24 16:01 42.08801 -70.00465 3053 ft 107 kts 17°
2026-04-24 16:02 42.09506 -70.00141 3053 ft 107 kts 17°
2026-04-24 16:02 42.09984 -69.99923 3055 ft 108 kts 17°
2026-04-24 16:02 42.10920 -69.99492 3055 ft 107 kts 17°
2026-04-24 16:02 42.11389 -69.99276 3052 ft 108 kts 17°
2026-04-24 16:03 42.12097 -69.98951 3053 ft 107 kts 17°
2026-04-24 16:03 42.12806 -69.98625 3053 ft 108 kts 17°
2026-04-24 16:03 42.13516 -69.98298 3052 ft 108 kts 17°
2026-04-24 16:03 42.14223 -69.97972 3050 ft 108 kts 17°
2026-04-24 16:04 42.14936 -69.97645 3049 ft 108 kts 17°
2026-04-24 16:04 42.15652 -69.97314 3053 ft 109 kts 17°
2026-04-24 16:04 42.16365 -69.96985 3052 ft 108 kts 17°
2026-04-24 16:04 42.17073 -69.96660 3047 ft 107 kts 17°
2026-04-24 16:05 42.18483 -69.96010 3045 ft 108 kts 17°
2026-04-24 16:05 42.19187 -69.95686 3033 ft 107 kts 17°
2026-04-24 16:06 42.20583 -69.95041 3033 ft 106 kts 17°
2026-04-24 16:06 42.21281 -69.94719 3028 ft 106 kts 18°
2026-04-24 16:06 42.22665 -69.94079 3031 ft 104 kts 17°
2026-04-24 16:07 42.23355 -69.93763 3032 ft 105 kts 17°
2026-04-24 16:07 42.24044 -69.93444 3031 ft 105 kts 18°
2026-04-24 16:07 42.25430 -69.92803 3031 ft 106 kts 18°
2026-04-24 16:08 42.26122 -69.92483 3030 ft 105 kts 17°
2026-04-24 16:08 42.27514 -69.91840 3033 ft 106 kts 17°
2026-04-24 16:09 42.28907 -69.91196 3031 ft 105 kts 18°
2026-04-24 16:09 42.29603 -69.90874 3030 ft 106 kts 18°
2026-04-24 16:09 42.30303 -69.90550 3030 ft 106 kts 17°
2026-04-24 16:09 42.30999 -69.90227 3030 ft 106 kts 17°
2026-04-24 16:10 42.33085 -69.89262 3029 ft 106 kts 18°
2026-04-24 16:11 42.34464 -69.88623 3025 ft 105 kts 17°
2026-04-24 16:11 42.35154 -69.88303 3025 ft 105 kts 17°
2026-04-24 16:11 42.35849 -69.87981 3024 ft 106 kts 18°
2026-04-24 16:12 42.37234 -69.87339 3027 ft 105 kts 17°
2026-04-24 16:12 42.37922 -69.87019 3023 ft 105 kts 18°
2026-04-24 16:12 42.39299 -69.86380 3026 ft 104 kts 17°
2026-04-24 16:13 42.39988 -69.86057 3030 ft 105 kts 16°
2026-04-24 16:13 42.41363 -69.85423 3028 ft 105 kts 17°
2026-04-24 16:14 42.42756 -69.84774 3037 ft 105 kts 17°
2026-04-24 16:14 42.43447 -69.84453 3036 ft 105 kts 17°
2026-04-24 16:14 42.44827 -69.83811 3070 ft 103 kts 17°
2026-04-24 16:15 42.45270 -69.83606 3115 ft 100 kts 17°
2026-04-24 16:15 42.46776 -69.82907 3296 ft 96 kts 16°
2026-04-24 16:16 42.48030 -69.82323 3451 ft 94 kts 16°
2026-04-24 16:16 42.48639 -69.82040 3527 ft 94 kts 16°
2026-04-24 16:17 42.50595 -69.81127 3532 ft 102 kts 17°
2026-04-24 16:17 42.51948 -69.80496 3531 ft 102 kts 17°
2026-04-24 16:18 42.53301 -69.79865 3531 ft 104 kts 17°
2026-04-24 16:18 42.54665 -69.79227 3532 ft 104 kts 16°
2026-04-24 16:18 42.55350 -69.78908 3531 ft 105 kts 16°
2026-04-24 16:19 42.56726 -69.78266 3539 ft 104 kts 16°
2026-04-24 16:19 42.57414 -69.77945 3531 ft 104 kts 16°
2026-04-24 16:20 42.58779 -69.77307 3527 ft 104 kts 17°
2026-04-24 16:20 42.60151 -69.76666 3532 ft 104 kts 17°
2026-04-24 16:20 42.60834 -69.76347 3531 ft 104 kts 17°
2026-04-24 16:21 42.62203 -69.75707 3543 ft 105 kts 17°
2026-04-24 16:21 42.62890 -69.75385 3541 ft 105 kts 17°
2026-04-24 16:21 42.63578 -69.75063 3541 ft 104 kts 17°
2026-04-24 16:22 42.64263 -69.74743 3527 ft 104 kts 17°
2026-04-24 16:22 42.65630 -69.74102 3526 ft 104 kts 17°
2026-04-24 16:22 42.66311 -69.73782 3538 ft 103 kts 17°
2026-04-24 16:23 42.66988 -69.73465 3525 ft 103 kts 17°
2026-04-24 16:23 42.67669 -69.73146 3525 ft 104 kts 17°
2026-04-24 16:23 42.68353 -69.72826 3528 ft 104 kts 17°
2026-04-24 16:24 42.69716 -69.72186 3528 ft 104 kts 17°
2026-04-24 16:24 42.70403 -69.71864 3527 ft 104 kts 17°
2026-04-24 16:24 42.71091 -69.71541 3531 ft 105 kts 17°
2026-04-24 16:24 42.71779 -69.71218 3528 ft 105 kts 17°
2026-04-24 16:25 42.72464 -69.70897 3527 ft 104 kts 17°
2026-04-24 16:25 42.73145 -69.70577 3527 ft 104 kts 17°
2026-04-24 16:25 42.73831 -69.70255 3525 ft 104 kts 17°
2026-04-24 16:26 42.75199 -69.69613 3525 ft 104 kts 17°
2026-04-24 16:26 42.75882 -69.69292 3522 ft 104 kts 17°
2026-04-24 16:26 42.77250 -69.68648 3525 ft 104 kts 16°
2026-04-24 16:27 42.77937 -69.68325 3525 ft 104 kts 16°
2026-04-24 16:27 42.78618 -69.68004 3522 ft 104 kts 17°
2026-04-24 16:27 42.79297 -69.67685 3522 ft 103 kts 17°
2026-04-24 16:27 42.79975 -69.67366 3522 ft 103 kts 16°
2026-04-24 16:28 42.80651 -69.67049 3518 ft 102 kts 17°
2026-04-24 16:28 42.81324 -69.66732 3520 ft 103 kts 16°
2026-04-24 16:28 42.82679 -69.66094 3517 ft 103 kts 17°
2026-04-24 16:29 42.83356 -69.65775 3517 ft 103 kts 16°
2026-04-24 16:29 42.84036 -69.65454 3520 ft 103 kts 16°
2026-04-24 16:29 42.85380 -69.64820 3517 ft 103 kts 17°
2026-04-24 16:30 42.86731 -69.64183 3518 ft 103 kts 17°
2026-04-24 16:30 42.87407 -69.63864 3517 ft 103 kts 17°
2026-04-24 16:30 42.88083 -69.63545 3516 ft 103 kts 17°
2026-04-24 16:31 42.88761 -69.63224 3516 ft 103 kts 17°
2026-04-24 16:31 42.89442 -69.62903 3518 ft 103 kts 17°
2026-04-24 16:31 42.90122 -69.62582 3518 ft 103 kts 17°
2026-04-24 16:31 42.90802 -69.62261 3516 ft 104 kts 17°
2026-04-24 16:32 42.91264 -69.62043 3517 ft 104 kts 17°
2026-04-24 16:32 42.92170 -69.61615 3518 ft 104 kts 17°
2026-04-24 16:32 42.92850 -69.61293 3518 ft 103 kts 17°
2026-04-24 16:32 42.93529 -69.60972 3516 ft 103 kts 16°
2026-04-24 16:33 42.94208 -69.60651 3514 ft 103 kts 16°
2026-04-24 16:33 42.94885 -69.60330 3514 ft 103 kts 17°
2026-04-24 16:33 42.95563 -69.60009 3514 ft 103 kts 17°
2026-04-24 16:33 42.96242 -69.59688 3514 ft 103 kts 17°
2026-04-24 16:34 42.96923 -69.59366 3516 ft 104 kts 17°
2026-04-24 16:34 42.97610 -69.59041 3517 ft 104 kts 17°
2026-04-24 16:34 42.98293 -69.58717 3516 ft 104 kts 16°
2026-04-24 16:34 42.98974 -69.58395 3515 ft 104 kts 17°
2026-04-24 16:35 42.99655 -69.58072 3513 ft 103 kts 17°
2026-04-24 16:35 43.00335 -69.57750 3512 ft 103 kts 16°
2026-04-24 16:35 43.01013 -69.57429 3511 ft 103 kts 16°
2026-04-24 16:35 43.01689 -69.57108 3511 ft 103 kts 17°
2026-04-24 16:36 43.02367 -69.56786 3511 ft 103 kts 17°
2026-04-24 16:36 43.03036 -69.56468 3510 ft 104 kts 17°
2026-04-24 16:36 43.03719 -69.56145 3510 ft 104 kts 17°
2026-04-24 16:36 43.04401 -69.55821 3513 ft 103 kts 16°
2026-04-24 16:37 43.05084 -69.55497 3509 ft 104 kts 17°
2026-04-24 16:37 43.05768 -69.55173 3507 ft 104 kts 17°
2026-04-24 16:37 43.06231 -69.54951 3508 ft 104 kts 16°
2026-04-24 16:37 43.07133 -69.54523 3509 ft 103 kts 17°
2026-04-24 16:38 43.07812 -69.54200 3509 ft 103 kts 17°
2026-04-24 16:38 43.08487 -69.53880 3509 ft 103 kts 17°
2026-04-24 16:38 43.09164 -69.53558 3510 ft 103 kts 16°
2026-04-24 16:38 43.09841 -69.53236 3509 ft 103 kts 17°
2026-04-24 16:39 43.10515 -69.52916 3510 ft 102 kts 17°
2026-04-24 16:39 43.11189 -69.52595 3516 ft 103 kts 17°
2026-04-24 16:39 43.11866 -69.52273 3515 ft 103 kts 17°
2026-04-24 16:39 43.12543 -69.51951 3519 ft 103 kts 16°
2026-04-24 16:40 43.13219 -69.51629 3516 ft 102 kts 15°
2026-04-24 16:40 43.13891 -69.51309 3516 ft 102 kts 16°
2026-04-24 16:40 43.14566 -69.50988 3515 ft 103 kts 16°
2026-04-24 16:40 43.15241 -69.50667 3514 ft 103 kts 16°
2026-04-24 16:41 43.15908 -69.50349 3516 ft 102 kts 15°
2026-04-24 16:41 43.16581 -69.50028 3513 ft 103 kts 15°
2026-04-24 16:41 43.17258 -69.49705 3512 ft 103 kts 16°
2026-04-24 16:41 43.17937 -69.49381 3506 ft 104 kts 16°
2026-04-24 16:42 43.18621 -69.49055 3507 ft 104 kts 16°
2026-04-24 16:42 43.19301 -69.48731 3506 ft 104 kts 16°
2026-04-24 16:42 43.19984 -69.48405 3506 ft 104 kts 17°
2026-04-24 16:42 43.20671 -69.48077 3506 ft 104 kts 16°
2026-04-24 16:43 43.21355 -69.47751 3509 ft 104 kts 16°
2026-04-24 16:43 43.22039 -69.47424 3509 ft 104 kts 16°
2026-04-24 16:43 43.22723 -69.47097 3507 ft 104 kts 16°
2026-04-24 16:43 43.23406 -69.46770 3509 ft 104 kts 16°
2026-04-24 16:44 43.24091 -69.46443 3505 ft 104 kts 16°
2026-04-24 16:44 43.24774 -69.46116 3506 ft 104 kts 16°
2026-04-24 16:44 43.25449 -69.45795 3505 ft 104 kts 16°
2026-04-24 16:44 43.26135 -69.45467 3506 ft 105 kts 16°
2026-04-24 16:45 43.26822 -69.45138 3509 ft 104 kts 17°
2026-04-24 16:45 43.27508 -69.44809 3510 ft 104 kts 16°
2026-04-24 16:45 43.28194 -69.44481 3509 ft 104 kts 16°
2026-04-24 16:45 43.28878 -69.44153 3508 ft 104 kts 16°
2026-04-24 16:46 43.29561 -69.43826 3510 ft 104 kts 16°
2026-04-24 16:46 43.30248 -69.43497 3508 ft 104 kts 17°
2026-04-24 16:46 43.30932 -69.43169 3510 ft 104 kts 16°
2026-04-24 16:46 43.31620 -69.42840 3510 ft 105 kts 16°
2026-04-24 16:47 43.32309 -69.42510 3508 ft 105 kts 17°
2026-04-24 16:47 43.32999 -69.42180 3509 ft 105 kts 16°
2026-04-24 16:47 43.33692 -69.41848 3509 ft 106 kts 16°
2026-04-24 16:47 43.34384 -69.41515 3508 ft 105 kts 15°
2026-04-24 16:48 43.35073 -69.41185 3509 ft 105 kts 16°
2026-04-24 16:48 43.35759 -69.40855 3508 ft 104 kts 15°
2026-04-24 16:48 43.36445 -69.40526 3508 ft 104 kts 16°
2026-04-24 16:48 43.37128 -69.40198 3508 ft 104 kts 16°
2026-04-24 16:49 43.37811 -69.39871 3505 ft 104 kts 16°
2026-04-24 16:49 43.38498 -69.39541 3504 ft 105 kts 16°
2026-04-24 16:49 43.39185 -69.39211 3505 ft 104 kts 16°
2026-04-24 16:49 43.39873 -69.38881 3505 ft 105 kts 16°
2026-04-24 16:50 43.40330 -69.38660 3507 ft 105 kts 16°
2026-04-24 16:50 43.41250 -69.38218 3505 ft 104 kts 16°
2026-04-24 16:50 43.41937 -69.37887 3505 ft 105 kts 15°
2026-04-24 16:50 43.42622 -69.37558 3504 ft 104 kts 16°
2026-04-24 16:51 43.43297 -69.37233 3502 ft 105 kts 17°
2026-04-24 16:51 43.43984 -69.36903 3502 ft 105 kts 17°
2026-04-24 16:51 43.44672 -69.36572 3502 ft 105 kts 17°
2026-04-24 16:51 43.45361 -69.36241 3502 ft 105 kts 17°
2026-04-24 16:52 43.46053 -69.35907 3503 ft 105 kts 16°
2026-04-24 16:52 43.46511 -69.35686 3503 ft 105 kts 16°
2026-04-24 16:52 43.47437 -69.35240 3501 ft 105 kts 16°
2026-04-24 16:52 43.47897 -69.35019 3502 ft 106 kts 16°
2026-04-24 16:53 43.48588 -69.34686 3506 ft 105 kts 16°
2026-04-24 16:53 43.49276 -69.34355 3506 ft 105 kts 16°
2026-04-24 16:53 43.49964 -69.34022 3506 ft 105 kts 16°
2026-04-24 16:53 43.50651 -69.33690 3505 ft 104 kts 17°
2026-04-24 16:54 43.51337 -69.33360 3505 ft 104 kts 17°
2026-04-24 16:54 43.52023 -69.33029 3505 ft 105 kts 16°
2026-04-24 16:54 43.52711 -69.32697 3505 ft 105 kts 17°
2026-04-24 16:54 43.53399 -69.32365 3504 ft 105 kts 17°
2026-04-24 16:55 43.54088 -69.32032 3507 ft 105 kts 17°
2026-04-24 16:55 43.54776 -69.31700 3506 ft 105 kts 16°
2026-04-24 16:55 43.55462 -69.31369 3500 ft 104 kts 16°
2026-04-24 16:55 43.56147 -69.31037 3500 ft 104 kts 16°
2026-04-24 16:56 43.56833 -69.30705 3499 ft 104 kts 16°
2026-04-24 16:56 43.57507 -69.30379 3499 ft 104 kts 16°
2026-04-24 16:56 43.58190 -69.30049 3499 ft 104 kts 17°
2026-04-24 16:56 43.58875 -69.29718 3499 ft 104 kts 17°
2026-04-24 16:57 43.59561 -69.29386 3499 ft 104 kts 17°
2026-04-24 16:57 43.60247 -69.29055 3499 ft 105 kts 17°
2026-04-24 16:57 43.60935 -69.28722 3499 ft 105 kts 16°
2026-04-24 16:57 43.61623 -69.28389 3499 ft 105 kts 16°
2026-04-24 16:58 43.62312 -69.28054 3498 ft 105 kts 16°
2026-04-24 16:58 43.63000 -69.27720 3496 ft 105 kts 17°
2026-04-24 16:58 43.63687 -69.27388 3497 ft 105 kts 17°
2026-04-24 16:58 43.64375 -69.27055 3498 ft 105 kts 16°
2026-04-24 16:59 43.65067 -69.26720 3498 ft 105 kts 17°
2026-04-24 16:59 43.65760 -69.26383 3499 ft 106 kts 17°
2026-04-24 16:59 43.67168 -69.25700 3499 ft 109 kts 17°
2026-04-24 17:00 43.67880 -69.25353 3498 ft 108 kts 17°
2026-04-24 17:00 43.69292 -69.24667 3493 ft 107 kts 17°
2026-04-24 17:00 43.69994 -69.24328 3488 ft 107 kts 16°
2026-04-24 17:01 43.71383 -69.23652 3484 ft 105 kts 16°
2026-04-24 17:01 43.72067 -69.23320 3482 ft 104 kts 17°
2026-04-24 17:02 43.73429 -69.22659 3483 ft 104 kts 17°
2026-04-24 17:02 43.74112 -69.22327 3484 ft 104 kts 17°
2026-04-24 17:02 43.74796 -69.21994 3483 ft 104 kts 17°
2026-04-24 17:02 43.75481 -69.21660 3485 ft 105 kts 16°
2026-04-24 17:03 43.76858 -69.20990 3486 ft 105 kts 17°
2026-04-24 17:03 43.77547 -69.20654 3487 ft 105 kts 17°
2026-04-24 17:03 43.78236 -69.20320 3488 ft 105 kts 17°
2026-04-24 17:04 43.78924 -69.19985 3493 ft 105 kts 17°
2026-04-24 17:04 43.80301 -69.19314 3494 ft 105 kts 17°
2026-04-24 17:04 43.80990 -69.18977 3494 ft 105 kts 17°
2026-04-24 17:05 43.81680 -69.18641 3493 ft 105 kts 17°
2026-04-24 17:05 43.82371 -69.18304 3493 ft 105 kts 17°
2026-04-24 17:05 43.83753 -69.17630 3495 ft 105 kts 17°
2026-04-24 17:06 43.84435 -69.17297 3500 ft 105 kts 17°
2026-04-24 17:06 43.85811 -69.16625 3501 ft 105 kts 16°
2026-04-24 17:06 43.86515 -69.16400 3498 ft 104 kts
2026-04-24 17:07 43.86982 -69.16264 3501 ft 104 kts
2026-04-24 17:07 43.87929 -69.15996 3505 ft 104 kts
2026-04-24 17:07 43.89368 -69.15587 3456 ft 109 kts
2026-04-24 17:08 43.90940 -69.15140 3109 ft 119 kts 10°
2026-04-24 17:08 43.91754 -69.14908 2924 ft 120 kts 10°
2026-04-24 17:08 43.92576 -69.14675 2735 ft 121 kts 10°
2026-04-24 17:09 43.94235 -69.14206 2371 ft 122 kts 11°
2026-04-24 17:09 43.95929 -69.13726 2008 ft 126 kts 11°
2026-04-24 17:10 43.96781 -69.13482 1817 ft 121 kts 11°
2026-04-24 17:10 43.99080 -69.12829 1098 ft 108 kts 11°
2026-04-24 17:11 44.01041 -69.12279 1004 ft 94 kts 11°
2026-04-24 17:12 44.03932 -69.10694 668 ft 72 kts 18°